Marion, OH

5:24 PM EDT on April 23, 2018 (GMT -0400)
Marion Municipal

Weather History for KMNN - October, 2013

Change the Weather History Date:

Sunday, October 20, 2013

  Actual Average (KDLZ) Record (KDLZ)
Temperature  
Mean Temperature 48 °F -  
Max Temperature 61 °F 58 °F 87 °F (1953)
Min Temperature 37 °F 36 °F 22 °F (1972)
Degree Days  
Heating Degree Days 16    
Moisture  
Dew Point 37 °F    
Average Humidity 69    
Maximum Humidity 89    
Minimum Humidity 42    
Precipitation  
Precipitation 0.00 in - - ()
Sea Level Pressure  
Sea Level Pressure 29.98 in    
Wind  
Wind Speed 11 mph (SSW)    
Max Wind Speed 18 mph    
Max Gust Speed 25 mph    
Visibility 10 miles    
Events      
Averages and records for this station are not official NWS values.
T = Trace of Precipitation, MM = Missing Value Source: NWS Daily Summary

Daily Weather History Graph

Daily Weather History Graph

Search for Another Location

Airport or City:

Astronomy

Oct. 20, 2013 Rise Set
Actual Time 7:49 AM EDT 6:44 PM EDT
Civil Twilight 7:21 AM EDT 7:12 PM EDT
Nautical Twilight 6:49 AM EDT 7:43 PM EDT
Astronomical Twilight 6:17 AM EDT 8:15 PM EDT
Moon 7:51 PM EDT (10/20) 9:26 AM EDT (10/20)
Length of Visible Light 11h 50m
Length of Day
10h 55m
Full, 97% of the Moon is Illuminated
Oct 20
Full
Oct 26
Last Quarter
Nov 3
New
Nov 10
First Quarter
Nov 17
Full

Hourly Weather History & Observations

Time (EDT) Temp. Windchill Dew Point Humidity Pressure Visibility Wind Dir Wind Speed Gust Speed Precip Events Conditions
12:53 AM 39.9 °F 33.4 °F 36.0 °F 86% 29.97 in 10.0 mi SW 10.4 mph - N/A   Clear
1:53 AM 39.0 °F 31.8 °F 36.0 °F 89% 29.97 in 10.0 mi SW 11.5 mph - N/A   Clear
2:53 AM 39.0 °F 32.3 °F 35.1 °F 86% 29.97 in 10.0 mi SW 10.4 mph - N/A   Clear
3:53 AM 37.9 °F 32.1 °F 35.1 °F 89% 29.96 in 10.0 mi SW 8.1 mph - N/A   Clear
4:53 AM 37.9 °F 32.1 °F 34.0 °F 86% 29.96 in 10.0 mi SSW 8.1 mph - N/A   Clear
5:53 AM 37.9 °F 30.9 °F 34.0 °F 86% 29.96 in 10.0 mi SSW 10.4 mph - N/A   Scattered Clouds
6:53 AM 37.9 °F 31.5 °F 34.0 °F 86% 29.97 in 10.0 mi SSW 9.2 mph - N/A   Mostly Cloudy
7:53 AM 37.9 °F 31.5 °F 34.0 °F 86% 29.98 in 10.0 mi SSW 9.2 mph - N/A   Clear
8:53 AM 39.9 °F 33.4 °F 36.0 °F 86% 29.99 in 10.0 mi SSW 10.4 mph - N/A   Partly Cloudy
9:53 AM 43.0 °F 36.8 °F 36.0 °F 76% 29.99 in 10.0 mi SSW 11.5 mph - N/A   Scattered Clouds
10:53 AM 48.9 °F - 37.9 °F 66% 30.01 in 10.0 mi SW 13.8 mph 20.7 mph N/A   Scattered Clouds
11:53 AM 52.0 °F - 39.0 °F 61% 30.01 in 10.0 mi SW 13.8 mph - N/A   Clear
12:53 PM 55.9 °F - 39.9 °F 55% 30.00 in 10.0 mi SW 13.8 mph - N/A   Clear
1:53 PM 59.0 °F - 41.0 °F 51% 29.98 in 10.0 mi SW 10.4 mph - N/A   Clear
2:53 PM 60.1 °F - 37.9 °F 44% 29.97 in 10.0 mi SW 12.7 mph 20.7 mph N/A   Scattered Clouds
3:53 PM 60.1 °F - 37.0 °F 42% 29.97 in 10.0 mi SW 16.1 mph 23.0 mph N/A   Partly Cloudy
4:53 PM 60.1 °F - 37.9 °F 44% 29.97 in 10.0 mi SW 18.4 mph 25.3 mph N/A   Clear
5:53 PM 57.9 °F - 39.0 °F 49% 29.98 in 10.0 mi SW 12.7 mph 19.6 mph N/A   Partly Cloudy
6:53 PM 54.0 °F - 39.9 °F 59% 29.98 in 10.0 mi SSW 9.2 mph - N/A   Clear
7:53 PM 51.1 °F - 39.9 °F 66% 29.99 in 10.0 mi South 5.8 mph - N/A   Clear
8:53 PM 50.0 °F - 39.9 °F 68% 29.99 in 10.0 mi South 9.2 mph - N/A   Clear
9:53 PM 51.1 °F - 39.0 °F 63% 29.99 in 10.0 mi South 13.8 mph 20.7 mph N/A   Clear
10:53 PM 50.0 °F - 39.0 °F 66% 29.99 in 10.0 mi SSW 15.0 mph - N/A   Clear
11:53 PM 48.9 °F - 39.0 °F 69% 29.98 in 10.0 mi South 12.7 mph - N/A   Clear